Location: downtown San Diego
(32.7310°N, 117.1990°W)
Time: 15:54:44
(UTC-07:00)

CARTOSAT-1 - Pass Details

Date: 14 June 2018
Orbit: 617 x 620 km, 97.8° (Epoch: 19 September)

Event Time Altitude Azimuth Distance (km) Brightness Sun altitude
Exits shadow 23:02:06 48° 322° (NW) 806 4.4 -28.4°
Drops below altitude 10° 23:05:21 10° 343° (NNW) 1,985 7.1 -28.7°
Sets 23:07:34 0° 345° (NNW) 2,895 8.2 -28.9°
